| time (UTC) | temp F | wind direction | speed knots | gust knots | rain 1hr in | rain 24hr in | rain mn in | humidity % | barometer mb |
| 20260506134551 | 68 | 211 | 0.0 | 0.0 | 0.00 | 0.00 | 0.00 | 94 | 1016.3 |
| 20260506134046 | 67 | 337 | 0.0 | 0.0 | 0.00 | 0.00 | 0.00 | 95 | 1016.5 |
| 20260506133544 | 67 | 257 | 0.0 | 0.0 | 0.00 | 0.00 | 0.00 | 95 | 1016.5 |
| 20260506133041 | 67 | 214 | 0.0 | 0.0 | 0.00 | 0.00 | 0.00 | 95 | 1016.7 |
| 20260506132538 | 66 | 112 | 0.0 | 0.0 | 0.00 | 0.00 | 0.00 | 95 | 1016.3 |
| 20260506132035 | 66 | 154 | 0.0 | 0.0 | 0.00 | 0.00 | 0.00 | 96 | 1016.4 |
| 20260506131532 | 66 | 106 | 0.0 | 0.0 | 0.00 | 0.00 | 0.00 | 96 | 1016.4 |
| 20260506131028 | 66 | 179 | 0.0 | 0.0 | 0.00 | 0.00 | 0.00 | 96 | 1016.5 |
| 20260506130525 | 65 | 136 | 0.0 | 0.0 | 0.00 | 0.00 | 0.00 | 96 | 1016.5 |
| 20260506130023 | 65 | 136 | 0.0 | 0.0 | 0.00 | 0.00 | 0.00 | 96 | 1016.5 |
| 20260506125521 | 65 | 169 | 0.0 | 0.0 | 0.00 | 0.00 | 0.00 | 96 | 1016.5 |
| 20260506125018 | 65 | 128 | 0.0 | 0.0 | 0.00 | 0.00 | 0.00 | 97 | 1016.5 |
| 20260506124516 | 65 | 127 | 0.0 | 0.0 | 0.00 | 0.00 | 0.00 | 97 | 1016.1 |
| 20260506124014 | 65 | 297 | 0.0 | 0.0 | 0.00 | 0.00 | 0.00 | 97 | 1016.2 |
| 20260506123512 | 65 | 359 | 0.0 | 0.0 | 0.00 | 0.00 | 0.00 | 97 | 1016.5 |
| 20260506123009 | 64 | 346 | 0.0 | 0.0 | 0.00 | 0.00 | 0.00 | 97 | 1016.2 |
| 20260506122506 | 64 | 1 | 0.0 | 0.0 | 0.00 | 0.00 | 0.00 | 97 | 1016.2 |
| 20260506122004 | 64 | 355 | 0.0 | 0.0 | 0.00 | 0.00 | 0.00 | 97 | 1016.0 |
| 20260506121501 | 64 | 353 | 0.0 | 0.0 | 0.00 | 0.00 | 0.00 | 98 | 1016.3 |
| 20260506120957 | 63 | 356 | 0.0 | 0.0 | 0.00 | 0.00 | 0.00 | 98 | 1016.0 |
| 20260506120455 | 63 | 356 | 0.0 | 0.0 | 0.00 | 0.00 | 0.00 | 98 | 1015.8 |
| 20260506115952 | 63 | 348 | 0.0 | 0.0 | 0.00 | 0.00 | 0.00 | 99 | 1015.9 |
| 20260506115450 | 62 | 350 | 0.0 | 0.0 | 0.00 | 0.00 | 0.00 | 99 | 1015.5 |
| 20260506114948 | 62 | 355 | 0.0 | 0.0 | 0.00 | 0.00 | 0.00 | 99 | 1015.5 |
| 20260506114446 | 62 | 352 | 0.0 | 0.0 | 0.00 | 0.00 | 0.00 | 99 | 1015.5 |
| 20260506113944 | 61 | 349 | 0.0 | 0.0 | 0.00 | 0.00 | 0.00 | 99 | 1015.5 |
| 20260506113442 | 61 | 347 | 0.0 | 0.0 | 0.00 | 0.00 | 0.00 | 99 | 1015.4 |
| 20260506112938 | 60 | 349 | 0.0 | 0.0 | 0.00 | 0.00 | 0.00 | 99 | 1015.3 |
| 20260506112436 | 60 | 347 | 0.0 | 0.0 | 0.00 | 0.00 | 0.00 | 99 | 1015.1 |
| 20260506111932 | 60 | 352 | 0.0 | 0.0 | 0.00 | 0.00 | 0.00 | 99 | 1015.1 |
| 20260506111431 | 60 | 352 | 0.0 | 0.0 | 0.00 | 0.00 | 0.00 | 99 | 1015.0 |
| 20260506110927 | 60 | 350 | 0.0 | 0.0 | 0.00 | 0.00 | 0.00 | 99 | 1014.8 |
| 20260506110425 | 60 | 349 | 0.0 | 0.0 | 0.00 | 0.00 | 0.00 | 99 | 1015.0 |
| 20260506105921 | 60 | 351 | 0.0 | 0.0 | 0.00 | 0.00 | 0.00 | 99 | 1014.8 |
| 20260506105418 | 60 | 352 | 0.0 | 0.0 | 0.00 | 0.00 | 0.00 | 99 | 1014.5 |
| 20260506104915 | 60 | 350 | 0.0 | 0.0 | 0.00 | 0.00 | 0.00 | 99 | 1014.6 |
| 20260506104413 | 60 | 351 | 0.0 | 0.0 | 0.00 | 0.00 | 0.00 | 99 | 1014.4 |
| 20260506103911 | 60 | 349 | 0.0 | 0.0 | 0.00 | 0.00 | 0.00 | 99 | 1014.8 |
| 20260506103408 | 60 | 349 | 0.0 | 0.0 | 0.00 | 0.00 | 0.00 | 99 | 1014.6 |
| 20260506102905 | 60 | 351 | 0.0 | 0.0 | 0.00 | 0.00 | 0.00 | 99 | 1014.5 |
| 20260506102403 | 60 | 352 | 0.0 | 0.0 | 0.00 | 0.00 | 0.00 | 99 | 1014.3 |
| 20260506101900 | 60 | 350 | 0.0 | 0.0 | 0.00 | 0.00 | 0.00 | 99 | 1014.1 |
| 20260506101356 | 60 | 352 | 0.0 | 0.0 | 0.00 | 0.00 | 0.00 | 99 | 1014.0 |
| 20260506100854 | 60 | 350 | 0.0 | 0.0 | 0.00 | 0.00 | 0.00 | 99 | 1014.2 |
| 20260506100352 | 60 | 349 | 0.0 | 0.0 | 0.00 | 0.00 | 0.00 | 99 | 1014.0 |
| 20260506095850 | 60 | 351 | 0.0 | 0.0 | 0.00 | 0.00 | 0.00 | 98 | 1014.0 |
| 20260506095348 | 60 | 350 | 0.0 | 0.0 | 0.00 | 0.00 | 0.00 | 99 | 1014.0 |
| 20260506094844 | 61 | 350 | 0.0 | 0.0 | 0.00 | 0.00 | 0.00 | 99 | 1013.9 |
| 20260506094343 | 61 | 350 | 0.0 | 0.0 | 0.00 | 0.00 | 0.00 | 99 | 1013.7 |
| 20260506093840 | 61 | 352 | 0.0 | 0.0 | 0.00 | 0.00 | 0.00 | 98 | 1013.9 |
| 20260506093337 | 61 | 351 | 0.0 | 0.0 | 0.00 | 0.00 | 0.00 | 98 | 1013.8 |
| 20260506092835 | 61 | 350 | 0.0 | 0.0 | 0.00 | 0.00 | 0.00 | 98 | 1013.9 |
| 20260506092333 | 61 | 350 | 0.0 | 0.0 | 0.00 | 0.00 | 0.00 | 98 | 1013.9 |
| 20260506091829 | 61 | 350 | 0.0 | 0.0 | 0.00 | 0.00 | 0.00 | 98 | 1013.9 |
| 20260506091327 | 61 | 350 | 0.0 | 0.0 | 0.00 | 0.00 | 0.00 | 98 | 1014.1 |
| 20260506090825 | 61 | 351 | 0.0 | 0.0 | 0.00 | 0.00 | 0.00 | 98 | 1013.9 |
| 20260506090322 | 61 | 349 | 0.0 | 0.0 | 0.00 | 0.00 | 0.00 | 97 | 1014.0 |
| 20260506085818 | 61 | 350 | 0.0 | 0.0 | 0.00 | 0.00 | 0.00 | 97 | 1013.6 |
| 20260506085315 | 61 | 350 | 0.0 | 0.0 | 0.00 | 0.00 | 0.00 | 98 | 1013.9 |
| 20260506084811 | 61 | 351 | 0.0 | 0.0 | 0.00 | 0.00 | 0.00 | 97 | 1014.1 |
| 20260506084308 | 61 | 351 | 0.0 | 0.0 | 0.00 | 0.00 | 0.00 | 97 | 1014.1 |
| 20260506083805 | 61 | 350 | 0.0 | 0.0 | 0.00 | 0.00 | 0.00 | 97 | 1014.1 |
| 20260506083302 | 61 | 350 | 0.0 | 0.0 | 0.00 | 0.00 | 0.00 | 97 | 1014.0 |
| 20260506082759 | 61 | 350 | 0.0 | 0.0 | 0.00 | 0.00 | 0.00 | 97 | 1013.9 |
| 20260506082255 | 61 | 350 | 0.0 | 0.0 | 0.00 | 0.00 | 0.00 | 97 | 1014.2 |
| 20260506081753 | 61 | 350 | 0.0 | 0.0 | 0.00 | 0.00 | 0.00 | 97 | 1014.3 |
| 20260506081250 | 61 | 350 | 0.0 | 0.0 | 0.00 | 0.00 | 0.00 | 96 | 1014.5 |
| 20260506080748 | 61 | 351 | 0.0 | 0.0 | 0.00 | 0.00 | 0.00 | 96 | 1014.3 |
| 20260506080244 | 61 | 350 | 0.0 | 0.0 | 0.00 | 0.00 | 0.00 | 96 | 1014.2 |
| 20260506073228 | 62 | 354 | 0.0 | 0.0 | 0.00 | 0.00 | 0.00 | 95 | 1014.7 |
| 20260506072725 | 62 | 350 | 0.0 | 0.0 | 0.00 | 0.00 | 0.00 | 95 | 1014.5 |
| 20260506072223 | 62 | 350 | 0.0 | 0.0 | 0.00 | 0.00 | 0.00 | 94 | 1014.5 |
| 20260506071720 | 63 | 350 | 0.0 | 0.0 | 0.00 | 0.00 | 0.00 | 95 | 1014.5 |
| 20260506071218 | 63 | 349 | 0.0 | 0.0 | 0.00 | 0.00 | 0.00 | 94 | 1014.5 |
| 20260506070714 | 62 | 351 | 0.0 | 0.0 | 0.00 | 0.00 | 0.00 | 93 | 1014.5 |
| 20260506070212 | 63 | 349 | 0.0 | 0.0 | 0.00 | 0.00 | 0.00 | 93 | 1014.5 |
| 20260506062148 | 63 | 348 | 0.0 | 0.0 | 0.00 | 0.00 | 0.00 | 90 | 1014.5 |
| 20260506061644 | 64 | 350 | 0.0 | 0.0 | 0.00 | 0.00 | 0.00 | 90 | 1014.6 |
| 20260506061142 | 64 | 347 | 0.0 | 0.0 | 0.00 | 0.00 | 0.00 | 91 | 1014.7 |
| 20260506060640 | 64 | 300 | 0.0 | 0.0 | 0.00 | 0.00 | 0.00 | 92 | 1014.4 |
| 20260506060137 | 65 | 348 | 0.0 | 0.0 | 0.00 | 0.00 | 0.00 | 91 | 1014.3 |
| 20260506051109 | 66 | 347 | 0.0 | 0.0 | 0.00 | 0.00 | 0.00 | 86 | 1014.6 |
| 20260506050607 | 66 | 343 | 0.0 | 0.0 | 0.00 | 0.00 | 0.00 | 86 | 1014.7 |
| 20260506050104 | 67 | 355 | 0.0 | 0.0 | 0.00 | 0.00 | 0.00 | 83 | 1014.8 |
| 20260506045057 | 65 | 350 | 0.0 | 0.0 | 0.00 | 0.00 | 0.00 | 86 | 1015.1 |
| 20260506044556 | 64 | 347 | 0.0 | 0.0 | 0.00 | 0.00 | 0.00 | 87 | 1015.1 |
| 20260506044052 | 63 | 347 | 0.0 | 0.0 | 0.00 | 0.00 | 0.00 | 86 | 1015.0 |
| 20260506043549 | 63 | 349 | 0.0 | 0.0 | 0.00 | 0.00 | 0.00 | 85 | 1014.8 |
| 20260506043047 | 63 | 350 | 0.0 | 0.0 | 0.00 | 0.00 | 0.00 | 85 | 1014.8 |
| 20260506042546 | 63 | 346 | 0.0 | 0.0 | 0.00 | 0.00 | 0.00 | 86 | 1014.8 |
| 20260506042044 | 63 | 347 | 0.0 | 0.0 | 0.00 | 0.00 | 0.00 | 85 | 1014.5 |
| 20260506041542 | 63 | 347 | 0.0 | 0.0 | 0.00 | 0.00 | 0.00 | 84 | 1014.4 |
| 20260506041038 | 63 | 347 | 0.0 | 0.0 | 0.00 | 0.00 | 0.00 | 84 | 1014.8 |
| 20260506040536 | 63 | 346 | 0.0 | 0.0 | 0.00 | 0.00 | 0.00 | 83 | 1014.7 |
| 20260506040032 | 63 | 348 | 0.0 | 0.0 | 0.00 | 0.00 | 0.00 | 83 | 1014.7 |
| 20260506035529 | 63 | 347 | 0.0 | 0.0 | 0.00 | 0.00 | 0.00 | 82 | 1014.5 |
| 20260506035026 | 63 | 347 | 0.0 | 0.0 | 0.00 | 0.00 | 0.00 | 83 | 1015.0 |
| 20260506034524 | 64 | 344 | 0.0 | 0.0 | 0.00 | 0.00 | 0.00 | 83 | 1014.7 |
| 20260506034020 | 63 | 345 | 0.0 | 0.0 | 0.00 | 0.00 | 0.00 | 81 | 1014.7 |
| 20260506033518 | 63 | 345 | 0.0 | 0.0 | 0.00 | 0.00 | 0.00 | 81 | 1014.8 |
| 20260506033015 | 64 | 344 | 0.0 | 0.0 | 0.00 | 0.00 | 0.00 | 82 | 1014.8 |
| 20260506032512 | 64 | 352 | 0.0 | 0.0 | 0.00 | 0.00 | 0.00 | 81 | 1015.0 |
| 20260506032008 | 64 | 350 | 0.0 | 0.0 | 0.00 | 0.00 | 0.00 | 80 | 1015.0 |
| 20260506031506 | 64 | 344 | 0.0 | 0.0 | 0.00 | 0.00 | 0.00 | 81 | 1014.7 |
| 20260506031003 | 64 | 344 | 0.0 | 0.0 | 0.00 | 0.00 | 0.00 | 80 | 1014.8 |
| 20260506030501 | 64 | 343 | 0.0 | 0.0 | 0.00 | 0.00 | 0.00 | 80 | 1014.6 |
| 20260506025958 | 64 | 344 | 0.0 | 0.0 | 0.00 | 0.00 | 0.00 | 79 | 1014.4 |
| 20260506025455 | 64 | 344 | 0.0 | 0.0 | 0.00 | 0.00 | 0.00 | 80 | 1014.6 |
| 20260506024951 | 64 | 344 | 0.0 | 0.0 | 0.00 | 0.00 | 0.00 | 78 | 1014.4 |
| 20260506024448 | 64 | 343 | 0.0 | 0.0 | 0.00 | 0.00 | 0.00 | 79 | 1014.4 |
| 20260506023944 | 64 | 344 | 0.0 | 0.0 | 0.00 | 0.00 | 0.00 | 78 | 1014.4 |
| 20260506023441 | 65 | 344 | 0.0 | 0.0 | 0.00 | 0.00 | 0.00 | 76 | 1014.5 |
| 20260506022937 | 65 | 343 | 0.0 | 0.0 | 0.00 | 0.00 | 0.00 | 77 | 1014.6 |
| 20260506022435 | 65 | 344 | 0.0 | 0.0 | 0.00 | 0.00 | 0.00 | 78 | 1014.5 |
| 20260506021933 | 65 | 343 | 0.0 | 0.0 | 0.00 | 0.00 | 0.00 | 77 | 1014.8 |
| 20260506021430 | 65 | 344 | 0.0 | 0.0 | 0.00 | 0.00 | 0.00 | 77 | 1014.5 |
| 20260506020927 | 65 | 13 | 0.0 | 0.0 | 0.00 | 0.00 | 0.00 | 77 | 1014.3 |
| 20260506020425 | 65 | 15 | 0.0 | 0.0 | 0.00 | 0.00 | 0.00 | 76 | 1014.3 |
| 20260506015922 | 66 | 15 | 0.0 | 0.0 | 0.00 | 0.00 | 0.00 | 76 | 1014.6 |
| 20260506015419 | 66 | 12 | 0.0 | 0.0 | 0.00 | 0.00 | 0.00 | 76 | 1014.6 |
| 20260506014916 | 66 | 15 | 0.0 | 0.0 | 0.00 | 0.00 | 0.00 | 77 | 1014.7 |
| 20260506014413 | 66 | 8 | 0.0 | 0.0 | 0.00 | 0.00 | 0.00 | 76 | 1014.6 |
| 20260506013910 | 67 | 17 | 0.0 | 0.0 | 0.00 | 0.00 | 0.00 | 75 | 1014.3 |
| 20260506013408 | 67 | 18 | 0.0 | 0.0 | 0.00 | 0.00 | 0.00 | 75 | 1014.3 |
| 20260506012903 | 67 | 18 | 0.0 | 0.0 | 0.00 | 0.00 | 0.00 | 74 | 1014.2 |
| 20260506012400 | 67 | 14 | 0.0 | 0.0 | 0.00 | 0.00 | 0.00 | 73 | 1014.5 |
| 20260506011857 | 68 | 17 | 0.0 | 0.0 | 0.00 | 0.00 | 0.00 | 72 | 1014.2 |
| 20260506011354 | 68 | 12 | 0.0 | 0.0 | 0.00 | 0.00 | 0.00 | 73 | 1014.4 |
| 20260506010851 | 68 | 12 | 0.0 | 0.0 | 0.00 | 0.00 | 0.00 | 73 | 1014.3 |
| 20260506010350 | 68 | 17 | 0.0 | 0.9 | 0.00 | 0.00 | 0.00 | 73 | 1014.2 |
| 20260506005846 | 69 | 16 | 0.0 | 0.0 | 0.00 | 0.00 | 0.00 | 74 | 1014.3 |
| 20260506005343 | 69 | 15 | 0.0 | 0.0 | 0.00 | 0.00 | 0.00 | 72 | 1014.1 |
| 20260506004839 | 69 | 14 | 0.0 | 0.0 | 0.00 | 0.00 | 0.00 | 71 | 1014.4 |
| 20260506004337 | 69 | 17 | 0.0 | 0.0 | 0.00 | 0.00 | 0.00 | 71 | 1014.2 |
| 20260506003833 | 69 | 22 | 0.9 | 0.9 | 0.00 | 0.00 | 0.00 | 70 | 1014.1 |
| 20260506003329 | 70 | 15 | 0.0 | 0.0 | 0.00 | 0.00 | 0.00 | 68 | 1014.1 |
| 20260506002825 | 70 | 22 | 0.0 | 0.0 | 0.00 | 0.00 | 0.00 | 70 | 1014.2 |
| 20260506002322 | 71 | 22 | 0.0 | 0.0 | 0.00 | 0.00 | 0.00 | 68 | 1014.5 |
| 20260506001818 | 71 | 17 | 0.0 | 0.0 | 0.00 | 0.00 | 0.00 | 67 | 1014.3 |
| 20260506001315 | 71 | 17 | 0.0 | 0.0 | 0.00 | 0.00 | 0.00 | 67 | 1014.3 |
| 20260506000812 | 72 | 22 | 0.0 | 0.9 | 0.00 | 0.00 | 0.00 | 65 | 1014.3 |
| 20260506000310 | 72 | 20 | 0.0 | 0.9 | 0.00 | 0.00 | 0.00 | 64 | 1014.4 |
| 20260505235806 | 73 | 3 | 0.0 | 0.9 | 0.00 | 0.00 | 0.00 | 63 | 1014.3 |
| 20260505235305 | 73 | 36 | 0.9 | 0.9 | 0.00 | 0.00 | 0.00 | 62 | 1014.3 |
| 20260505234800 | 76 | 41 | 0.9 | 0.9 | 0.00 | 0.00 | 0.00 | 60 | 1014.4 |
| 20260505234258 | 76 | 28 | 0.0 | 0.0 | 0.00 | 0.00 | 0.00 | 60 | 1014.4 |
| 20260505233755 | 76 | 229 | 1.7 | 1.7 | 0.00 | 0.00 | 0.00 | 55 | 1014.4 |
| 20260505233253 | 77 | 133 | 0.9 | 0.9 | 0.00 | 0.00 | 0.00 | 55 | 1014.4 |
| 20260505232750 | 77 | 177 | 0.9 | 1.7 | 0.00 | 0.00 | 0.00 | 54 | 1014.1 |
| 20260505232247 | 77 | 232 | 1.7 | 1.7 | 0.00 | 0.00 | 0.00 | 51 | 1014.3 |
| 20260505231743 | 77 | 133 | 3.5 | 4.3 | 0.00 | 0.00 | 0.00 | 52 | 1014.3 |
| 20260505231243 | 78 | 215 | 0.9 | 1.7 | 0.00 | 0.00 | 0.00 | 49 | 1014.3 |
| 20260505230740 | 78 | 298 | 0.0 | 0.9 | 0.00 | 0.00 | 0.00 | 53 | 1014.3 |
| 20260505230237 | 78 | 191 | 1.7 | 1.7 | 0.00 | 0.00 | 0.00 | 53 | 1014.3 |
| 20260505225733 | 77 | 248 | 4.3 | 5.2 | 0.00 | 0.00 | 0.00 | 47 | 1014.3 |
| 20260505225231 | 77 | 203 | 4.3 | 5.2 | 0.00 | 0.00 | 0.00 | 49 | 1014.2 |
| 20260505224726 | 78 | 244 | 2.6 | 2.6 | 0.00 | 0.00 | 0.00 | 46 | 1014.4 |
| 20260505224224 | 78 | 244 | 4.3 | 5.2 | 0.00 | 0.00 | 0.00 | 45 | 1014.1 |
| 20260505223721 | 78 | 231 | 3.5 | 4.3 | 0.00 | 0.00 | 0.00 | 45 | 1014.0 |
| 20260505223217 | 78 | 221 | 4.3 | 5.2 | 0.00 | 0.00 | 0.00 | 48 | 1013.9 |
| 20260505222713 | 78 | 214 | 4.3 | 5.2 | 0.00 | 0.00 | 0.00 | 45 | 1013.9 |
| 20260505222209 | 78 | 177 | 2.6 | 2.6 | 0.00 | 0.00 | 0.00 | 49 | 1013.8 |
| 20260505221707 | 78 | 252 | 3.5 | 5.2 | 0.00 | 0.00 | 0.00 | 44 | 1013.8 |
| 20260505221203 | 78 | 200 | 3.5 | 5.2 | 0.00 | 0.00 | 0.00 | 44 | 1013.9 |
| 20260505220700 | 78 | 217 | 4.3 | 6.1 | 0.00 | 0.00 | 0.00 | 46 | 1013.8 |
| 20260505220158 | 79 | 242 | 3.5 | 4.3 | 0.00 | 0.00 | 0.00 | 42 | 1014.1 |
| 20260505215655 | 79 | 160 | 4.3 | 6.1 | 0.00 | 0.00 | 0.00 | 42 | 1013.9 |
| 20260505215153 | 79 | 179 | 5.2 | 6.1 | 0.00 | 0.00 | 0.00 | 40 | 1014.2 |
| 20260505214651 | 79 | 200 | 5.2 | 8.7 | 0.00 | 0.00 | 0.00 | 39 | 1013.9 |
| 20260505214148 | 79 | 198 | 4.3 | 5.2 | 0.00 | 0.00 | 0.00 | 44 | 1014.0 |
| 20260505213646 | 79 | 176 | 4.3 | 5.2 | 0.00 | 0.00 | 0.00 | 42 | 1014.0 |
| 20260505213142 | 78 | 238 | 3.5 | 4.3 | 0.00 | 0.00 | 0.00 | 41 | 1014.3 |
| 20260505212638 | 79 | 192 | 4.3 | 6.1 | 0.00 | 0.00 | 0.00 | 40 | 1014.2 |
| 20260505212136 | 78 | 180 | 3.5 | 4.3 | 0.00 | 0.00 | 0.00 | 46 | 1014.2 |
| 20260505211632 | 79 | 206 | 5.2 | 8.7 | 0.00 | 0.00 | 0.00 | 42 | 1014.0 |
| 20260505211130 | 78 | 265 | 3.5 | 5.2 | 0.00 | 0.00 | 0.00 | 45 | 1014.3 |
| 20260505210626 | 78 | 98 | 1.7 | 1.7 | 0.00 | 0.00 | 0.00 | 46 | 1014.4 |
| 20260505210123 | 78 | 227 | 2.6 | 2.6 | 0.00 | 0.00 | 0.00 | 48 | 1014.2 |
| 20260505205621 | 78 | 199 | 3.5 | 4.3 | 0.00 | 0.00 | 0.00 | 45 | 1014.3 |
| 20260505205119 | 78 | 194 | 5.2 | 7.8 | 0.00 | 0.00 | 0.00 | 42 | 1014.3 |
| 20260505204615 | 78 | 184 | 2.6 | 2.6 | 0.00 | 0.00 | 0.00 | 46 | 1014.4 |
| 20260505204113 | 79 | 167 | 6.1 | 7.8 | 0.00 | 0.00 | 0.00 | 45 | 1014.1 |
| 20260505203609 | 78 | 183 | 3.5 | 4.3 | 0.00 | 0.00 | 0.00 | 47 | 1014.2 |
| 20260505203107 | 78 | 163 | 4.3 | 6.1 | 0.00 | 0.00 | 0.00 | 44 | 1014.5 |
| 20260505202602 | 78 | 153 | 5.2 | 7.0 | 0.00 | 0.00 | 0.00 | 47 | 1014.5 |
| 20260505202058 | 77 | 240 | 2.6 | 2.6 | 0.00 | 0.00 | 0.00 | 49 | 1014.4 |
| 20260505201555 | 77 | 152 | 5.2 | 6.1 | 0.00 | 0.00 | 0.00 | 48 | 1014.5 |
| 20260505201053 | 77 | 163 | 6.1 | 7.8 | 0.00 | 0.00 | 0.00 | 48 | 1014.6 |
| 20260505200551 | 77 | 145 | 3.5 | 6.1 | 0.00 | 0.00 | 0.00 | 48 | 1014.8 |
| 20260505200047 | 77 | 242 | 7.8 | 8.7 | 0.00 | 0.00 | 0.00 | 49 | 1014.8 |
| 20260505195543 | 77 | 203 | 2.6 | 2.6 | 0.00 | 0.00 | 0.00 | 49 | 1014.8 |
| 20260505195041 | 77 | 221 | 1.7 | 1.7 | 0.00 | 0.00 | 0.00 | 50 | 1015.1 |
| 20260505194538 | 76 | 166 | 3.5 | 5.2 | 0.00 | 0.00 | 0.00 | 47 | 1015.1 |
| 20260505194033 | 77 | 192 | 5.2 | 6.1 | 0.00 | 0.00 | 0.00 | 49 | 1015.2 |
| 20260505193531 | 76 | 183 | 2.6 | 2.6 | 0.00 | 0.00 | 0.00 | 45 | 1015.2 |
| 20260505193028 | 77 | 202 | 5.2 | 6.1 | 0.00 | 0.00 | 0.00 | 46 | 1015.5 |
| 20260505192526 | 77 | 163 | 6.1 | 7.0 | 0.00 | 0.00 | 0.00 | 48 | 1015.1 |
| 20260505192024 | 77 | 193 | 2.6 | 2.6 | 0.00 | 0.00 | 0.00 | 47 | 1015.4 |
| 20260505191522 | 76 | 165 | 2.6 | 4.3 | 0.00 | 0.00 | 0.00 | 47 | 1015.2 |
| 20260505191020 | 76 | 223 | 3.5 | 4.3 | 0.00 | 0.00 | 0.00 | 48 | 1015.4 |
| 20260505190514 | 76 | 240 | 4.3 | 5.2 | 0.00 | 0.00 | 0.00 | 46 | 1015.5 |
| 20260505190010 | 76 | 332 | 1.7 | 1.7 | 0.00 | 0.00 | 0.00 | 46 | 1015.5 |
| 20260505185507 | 75 | 172 | 4.3 | 5.2 | 0.00 | 0.00 | 0.00 | 47 | 1015.6 |
| 20260505185003 | 76 | 135 | 4.3 | 5.2 | 0.00 | 0.00 | 0.00 | 47 | 1015.8 |
| 20260505180927 | 74 | 212 | 5.2 | 7.0 | 0.00 | 0.00 | 0.00 | 53 | 1016.4 |
| 20260505180423 | 74 | 212 | 5.2 | 7.0 | 0.00 | 0.00 | 0.00 | 53 | 1016.4 |
| 20260505175920 | 74 | 233 | 5.2 | 7.8 | 0.00 | 0.00 | 0.00 | 50 | 1016.5 |
| 20260505175416 | 74 | 240 | 7.0 | 7.8 | 0.00 | 0.00 | 0.00 | 49 | 1016.5 |
| 20260505174912 | 74 | 166 | 6.1 | 7.8 | 0.00 | 0.00 | 0.00 | 50 | 1016.7 |
| 20260505174410 | 74 | 195 | 7.0 | 7.8 | 0.00 | 0.00 | 0.00 | 49 | 1016.6 |
| 20260505173906 | 74 | 145 | 7.0 | 7.8 | 0.00 | 0.00 | 0.00 | 49 | 1016.9 |
| 20260505173403 | 74 | 145 | 7.0 | 7.8 | 0.00 | 0.00 | 0.00 | 49 | 1016.9 |
| 20260505172859 | 74 | 158 | 7.0 | 7.8 | 0.00 | 0.00 | 0.00 | 51 | 1016.6 |
| 20260505172357 | 73 | 147 | 2.6 | 2.6 | 0.00 | 0.00 | 0.00 | 51 | 1016.4 |
| 20260505171856 | 73 | 245 | 0.9 | 0.9 | 0.00 | 0.00 | 0.00 | 57 | 1016.5 |
| 20260505171353 | 73 | 167 | 5.2 | 7.0 | 0.00 | 0.00 | 0.00 | 53 | 1016.6 |
| 20260505170850 | 73 | 163 | 6.1 | 7.0 | 0.00 | 0.00 | 0.00 | 52 | 1016.5 |
| 20260505170347 | 73 | 301 | 2.6 | 4.3 | 0.00 | 0.00 | 0.00 | 54 | 1016.7 |
| 20260505165842 | 73 | 248 | 2.6 | 2.6 | 0.00 | 0.00 | 0.00 | 54 | 1016.7 |
| 20260505165338 | 73 | 251 | 4.3 | 5.2 | 0.00 | 0.00 | 0.00 | 53 | 1016.9 |
| 20260505164834 | 73 | 205 | 6.1 | 7.0 | 0.00 | 0.00 | 0.00 | 53 | 1017.0 |
| 20260505164331 | 73 | 176 | 5.2 | 7.0 | 0.00 | 0.00 | 0.00 | 57 | 1017.2 |
| 20260505163829 | 73 | 358 | 0.9 | 0.9 | 0.00 | 0.00 | 0.00 | 55 | 1016.9 |
| 20260505163327 | 73 | 228 | 3.5 | 4.3 | 0.00 | 0.00 | 0.00 | 57 | 1017.0 |
| 20260505162825 | 72 | 185 | 7.0 | 11.3 | 0.00 | 0.00 | 0.00 | 60 | 1016.9 |
| 20260505162321 | 72 | 181 | 4.3 | 5.2 | 0.00 | 0.00 | 0.00 | 54 | 1017.0 |
| 20260505161819 | 72 | 176 | 6.1 | 8.7 | 0.00 | 0.00 | 0.00 | 55 | 1017.2 |
| 20260505161316 | 71 | 286 | 0.0 | 0.9 | 0.00 | 0.00 | 0.00 | 55 | 1017.1 |
| 20260505160813 | 72 | 216 | 8.7 | 11.3 | 0.00 | 0.00 | 0.00 | 59 | 1017.0 |
| 20260505160311 | 71 | 145 | 6.1 | 7.0 | 0.00 | 0.00 | 0.00 | 57 | 1017.1 |
| 20260505153250 | 70 | 285 | 3.5 | 4.3 | 0.00 | 0.00 | 0.00 | 59 | 1017.5 |
| 20260505152747 | 71 | 308 | 3.5 | 5.2 | 0.00 | 0.00 | 0.00 | 58 | 1017.6 |
| 20260505152243 | 70 | 157 | 2.6 | 2.6 | 0.00 | 0.00 | 0.00 | 58 | 1017.6 |
| 20260505151738 | 70 | 211 | 1.7 | 2.6 | 0.00 | 0.00 | 0.00 | 59 | 1017.5 |
| 20260505151236 | 70 | 228 | 1.7 | 1.7 | 0.00 | 0.00 | 0.00 | 60 | 1017.7 |
| 20260505150732 | 70 | 248 | 3.5 | 4.3 | 0.00 | 0.00 | 0.00 | 59 | 1017.8 |
| 20260505150230 | 69 | 351 | 0.0 | 0.0 | 0.00 | 0.00 | 0.00 | 61 | 1017.7 |
| 20260505140159 | 65 | 222 | 3.5 | 4.3 | 0.00 | 0.00 | 0.00 | 69 | 1017.5 |